Location: ??????
(55.6130°N, 37.7882°E)
Time: 04:49:43
(UTC+00:00)

USA 229 - Pass Details

Date: 14 April 2024
Orbit: 890 x 1322 km, 63.4° (Epoch: 18 May)

Event Time Altitude Azimuth Distance (km) Brightness Sun altitude
Rises 01:34:33 0° 302° (WNW) 3,832 6.3 -7.5°
Reaches altitude 10° 01:37:07 10° 305° (NW) 2,936 5.8 -7.2°
Maximum altitude 01:44:08 63° 27° (NNE) 1,294 4.5 -6.3°
Drops below altitude 10° 01:51:52 10° 109° (ESE) 3,233 7.0 -5.3°
Sets 01:54:49 0° 112° (ESE) 4,243 7.5 -4.9°
